Theta_e
341 341 339 339 340 340 341 342 340 341 343 341 340 340 340 339 339 339 338 338 336 335 336 335 333 330 330 328 330 332 334 334 334 335 333 334 335 341 347 344 344 344 345 345 344 344 342 341 339 339 339 337 336 334 333 333 332 332 331 330 330 331 332 332 329 330 331 330 330 330 331 331 331 331 332 333 334 335 335 335 335 336 336 336 336
342 341 340 340 340 341 343 341 341 341 342 342 340 341 339 339 339 339 340 338 339 338 338 335 333 332 329 331 331 331 330 332 332 332 333 332 335 336 346 344 342 343 344 345 346 345 344 343 341 340 340 339 338 335 335 333 333 332 331 331 331 331 332 332 331 330 330 331 331 330 330 331 331 331 331 332 333 334 335 335 335 335 335 335 335
343 340 341 339 338 338 340 340 340 341 342 342 340 341 341 340 339 338 338 338 340 339 337 334 333 333 333 332 333 333 333 335 334 334 333 333 337 337 341 345 344 343 343 343 344 345 345 344 343 341 341 340 341 338 336 335 334 333 332 331 332 331 331 332 332 332 331 331 331 331 331 331 331 331 330 331 332 333 335 335 335 335 335 335 335
341 342 341 338 337 336 337 338 340 341 340 340 339 340 340 340 341 341 340 340 340 339 338 336 335 335 335 335 334 334 336 336 334 334 334 334 334 336 336 339 343 344 344 342 343 345 345 346 345 344 342 341 340 339 339 336 336 334 333 332 332 333 331 332 332 332 331 331 332 332 332 332 331 330 330 331 332 334 335 334 334 335 335 335 335
342 341 342 338 338 338 338 339 341 341 341 343 344 341 341 340 339 340 339 339 338 337 339 338 335 336 337 338 334 335 338 338 333 334 333 334 334 334 335 339 338 342 343 343 342 343 344 345 345 345 344 343 342 340 340 339 337 334 333 333 332 332 332 332 332 332 332 331 332 332 332 332 332 331 330 330 332 333 335 335 334 334 334 335 334
342 342 340 338 338 338 337 338 340 343 342 341 340 338 337 338 338 337 342 337 335 335 335 335 336 337 337 339 336 334 337 337 334 334 333 333 333 332 335 335 337 336 339 343 343 342 342 343 344 345 345 344 343 341 341 340 338 335 334 334 333 333 333 332 332 332 332 332 332 332 333 333 332 331 330 331 331 333 335 335 335 334 334 334 333
341 343 339 338 337 337 340 340 342 342 341 342 342 340 337 337 337 336 337 336 337 336 336 335 334 335 335 337 338 336 336 334 333 334 334 334 333 334 333 335 335 336 338 335 339 340 341 341 342 343 345 345 345 343 342 341 340 337 335 334 334 333 333 333 332 332 333 332 332 332 333 334 333 332 331 330 332 332 332 333 334 334 334 334 334
341 340 339 340 339 339 339 342 344 341 341 343 342 340 339 338 338 337 334 335 335 335 335 335 334 334 335 336 337 337 336 335 336 336 336 335 334 334 333 334 334 334 339 335 335 336 339 339 339 340 342 343 345 346 343 341 340 339 337 335 335 334 335 333 332 332 333 333 332 332 333 333 333 333 332 331 331 332 332 332 333 334 334 334 333
338 338 338 339 340 337 337 340 342 342 342 338 338 338 337 339 336 338 335 334 334 334 334 334 334 334 333 333 334 335 335 336 337 337 339 336 334 333 334 335 334 341 335 335 335 334 337 339 339 339 340 340 342 344 344 341 340 341 339 337 336 335 335 334 333 332 333 333 333 332 333 333 333 333 332 331 331 331 332 332 333 333 334 333 333
336 337 337 338 339 339 338 339 342 343 340 337 336 337 337 336 335 336 338 336 334 334 333 333 334 334 333 333 333 334 334 336 337 338 336 336 335 334 334 334 334 335 335 334 333 334 333 335 339 341 341 339 337 341 342 342 339 341 341 338 337 336 336 335 334 333 333 333 333 332 333 334 333 333 332 331 331 331 332 332 333 333 334 334 333
338 339 337 337 335 337 339 340 340 338 338 336 336 336 336 335 334 335 337 336 334 334 333 333 333 332 333 333 333 333 334 334 336 336 336 336 337 338 336 334 334 333 333 334 334 334 334 334 334 336 337 340 339 339 340 340 341 339 341 339 338 337 337 337 336 334 333 332 333 333 333 334 333 333 333 332 331 331 332 332 333 333 333 333 333
337 339 336 335 335 337 338 338 338 336 334 333 331 332 333 333 333 333 333 334 335 334 334 333 331 330 330 331 332 333 333 334 333 333 333 334 336 337 335 334 333 334 334 334 333 333 333 333 335 334 335 337 338 338 338 339 339 341 342 338 340 338 338 338 338 337 334 334 333 333 333 334 334 333 333 332 332 332 332 332 333 333 333 333 333
338 339 338 337 335 335 337 336 337 336 334 333 334 334 334 333 332 331 331 331 331 333 333 333 328 325 326 327 328 330 332 333 331 331 334 334 334 334 335 332 333 332 333 333 333 332 332 332 332 332 333 334 335 338 337 337 338 339 340 339 339 340 339 339 338 338 336 334 333 333 334 334 334 333 333 333 332 332 332 332 332 332 332 332 333
336 338 338 337 336 336 336 335 334 334 336 336 336 337 334 333 332 328 330 328 328 332 332 331 324 323 322 323 322 326 327 330 331 331 333 334 334 334 333 334 334 334 334 333 333 332 332 332 331 332 333 334 333 332 334 335 336 337 339 340 339 338 340 340 338 338 339 336 334 333 334 334 335 333 334 333 332 332 332 331 332 332 332 332 331
336 336 335 334 333 333 334 332 333 334 331 330 329 329 330 329 330 328 326 327 327 331 329 330 324 327 325 319 316 318 320 324 327 328 329 331 332 333 334 333 334 335 334 333 332 332 333 334 333 332 333 333 333 333 333 334 333 335 337 338 339 340 340 341 338 340 340 338 336 335 334 334 335 334 334 333 333 332 332 331 332 332 331 331 331
332 333 332 331 331 330 331 331 330 331 327 325 325 325 326 327 327 327 326 323 324 325 327 327 327 325 319 319 317 316 313 317 322 326 326 328 329 332 334 333 333 334 332 333 332 332 333 334 334 332 332 332 332 332 332 333 334 335 334 333 335 339 340 338 339 338 339 339 337 337 333 333 336 334 334 333 333 332 332 332 331 331 331 331 331
330 330 331 329 328 327 327 326 326 327 326 324 323 323 324 324 325 324 323 321 321 321 323 326 327 329 325 320 317 316 317 320 322 322 325 325 326 327 329 332 333 332 330 333 333 332 333 332 333 332 332 332 332 332 331 333 334 336 335 334 335 337 338 339 337 337 339 340 337 337 334 333 335 334 333 332 333 333 332 332 332 331 331 331 331
326 326 326 328 326 326 325 324 323 324 324 322 322 322 322 322 324 323 321 322 320 318 319 323 325 326 327 329 326 319 317 320 320 314 323 323 325 326 326 326 326 327 331 332 331 332 332 332 332 332 332 331 332 331 331 331 334 334 334 333 331 334 336 337 339 340 338 340 339 338 336 334 334 333 334 333 333 333 333 332 331 332 331 330 330
324 323 323 324 323 323 323 322 322 322 325 321 319 319 321 322 324 321 321 321 320 317 317 319 320 322 322 322 323 322 322 319 315 317 313 318 321 321 322 324 323 323 326 326 330 332 333 334 332 333 332 332 331 331 331 331 334 334 337 335 332 328 328 329 336 340 340 339 340 339 339 335 334 333 334 334 333 333 333 333 332 332 331 331 331
321 321 321 321 321 320 320 319 319 321 322 319 318 318 319 321 322 320 320 320 318 316 316 317 316 315 319 317 318 318 318 318 318 315 315 312 312 317 320 319 320 322 322 321 323 322 322 327 333 334 333 333 332 332 331 331 331 332 334 332 332 329 328 327 327 328 336 339 339 340 338 337 336 335 335 334 333 332 333 333 332 332 332 331 331
319 319 319 319 320 319 318 318 318 318 321 318 317 317 317 317 317 317 317 316 317 318 315 314 315 314 314 314 314 313 314 315 315 315 312 310 310 311 312 315 316 318 317 320 320 320 321 322 325 332 334 333 332 330 330 330 330 331 332 330 330 329 328 327 323 320 321 333 338 339 338 338 338 336 335 333 333 333 333 332 332 332 332 331 331
317 317 317 317 317 318 317 317 316 318 320 316 315 315 316 317 316 315 315 314 315 316 315 315 314 314 313 313 311 311 311 311 312 312 311 312 310 310 310 310 309 312 315 315 316 318 319 321 322 325 328 332 329 329 330 330 331 331 330 330 330 328 329 328 321 320 321 322 331 336 337 336 337 339 337 335 335 333 332 333 333 333 333 333 331
316 316 316 316 316 319 316 316 317 318 316 315 314 314 315 315 315 314 313 312 313 314 314 314 313 312 312 311 310 310 310 309 310 310 310 308 308 308 308 310 309 309 312 314 314 316 316 317 318 318 323 328 329 331 330 331 331 330 327 326 327 327 328 324 318 316 317 324 326 333 336 337 337 338 336 335 335 335 334 334 335 334 333 333 332
314 314 314 315 317 314 315 313 314 313 313 314 314 314 314 314 313 312 311 312 313 314 312 311 310 310 310 310 310 311 310 309 310 310 308 307 307 306 306 308 308 309 311 311 313 313 314 315 315 315 321 322 323 321 322 324 327 329 328 327 325 325 327 328 322 319 315 318 322 327 333 335 336 336 336 336 335 333 334 334 335 335 334 334 334
312 313 312 313 313 312 312 311 311 313 313 312 313 313 313 311 311 310 311 311 311 311 310 309 309 309 308 309 309 310 309 310 310 308 308 308 307 304 306 308 305 305 308 309 308 310 312 312 313 314 316 316 316 316 317 318 320 319 319 321 325 324 323 325 327 323 316 313 315 323 329 333 335 335 335 335 336 335 334 332 329 326 327 327 329
311 311 313 314 312 312 311 310 311 311 312 312 312 312 312 311 309 309 310 310 310 309 309 309 309 308 308 307 307 308 307 308 308 307 306 305 304 304 304 304 304 303 305 305 306 305 307 310 312 312 313 311 311 312 313 314 314 316 316 317 320 323 321 321 322 323 320 316 313 316 321 326 331 333 334 335 334 331 329 324 322 323 321 320 320
311 312 313 312 311 311 311 309 309 309 309 309 311 310 310 311 309 309 310 310 309 309 308 307 308 307 306 307 308 307 307 308 307 306 307 305 303 303 301 298 299 300 300 302 302 302 303 306 309 309 309 308 308 309 310 309 311 314 315 316 320 320 320 320 321 321 320 318 314 311 313 318 322 323 325 326 325 323 324 325 324 321 321 320 320
311 310 311 310 309 308 308 307 308 308 308 308 308 308 309 308 307 307 307 312 308 307 307 307 306 306 306 307 306 305 306 305 305 305 304 304 302 302 301 299 296 294 297 297 298 299 303 302 304 306 306 306 306 306 309 307 307 312 314 314 314 314 315 317 319 320 320 319 318 316 312 312 315 318 319 321 324 325 325 326 324 322 320 320 323
312 311 309 309 309 308 307 306 307 306 306 307 307 307 308 307 306 306 306 306 308 306 306 305 305 305 305 305 304 303 303 303 303 303 303 302 301 301 300 298 298 295 294 293 294 295 299 301 299 301 304 304 304 305 304 304 308 310 308 308 308 310 313 314 314 316 318 316 316 315 314 314 315 318 323 325 325 326 326 324 323 321 320 323 326
312 312 308 307 307 310 305 305 305 305 305 306 306 307 306 306 306 305 305 305 304 305 306 305 304 304 304 303 302 301 302 301 301 301 301 300 300 300 300 300 299 296 295 293 293 297 297 299 300 299 302 302 303 303 304 304 309 308 306 306 307 308 310 311 311 312 314 314 312 310 309 311 314 319 324 325 324 324 323 322 320 321 321 324 327
310 306 306 305 304 303 303 303 303 303 303 304 305 305 305 304 305 304 304 304 303 303 304 305 304 303 302 301 301 300 301 300 300 300 299 299 298 299 299 299 299 298 296 295 292 296 298 296 299 301 300 301 302 302 303 304 306 307 306 305 306 310 312 311 312 313 314 314 312 311 313 310 309 312 316 322 324 324 324 324 323 323 326 327 323
306 305 304 303 303 302 302 302 301 301 302 302 303 304 304 304 304 303 303 303 302 302 302 303 303 302 301 300 299 299 299 299 298 298 298 298 298 298 298 298 297 297 297 295 293 292 297 297 298 299 300 300 301 301 301 303 305 308 305 305 306 310 309 310 311 313 314 314 314 314 316 315 311 311 314 317 319 323 324 323 324 326 325 321 318
306 304 303 302 302 301 300 301 300 300 300 300 302 302 303 303 303 303 303 303 302 301 302 301 302 301 300 299 299 299 299 297 297 297 297 297 297 297 297 297 296 296 296 294 292 292 295 298 298 298 299 300 299 301 300 301 302 303 306 305 306 306 307 308 310 310 310 311 312 312 311 310 310 314 316 316 320 323 322 320 321 320 319 317 315
304 304 303 302 301 300 299 299 298 298 299 299 300 301 302 302 302 304 303 301 301 300 300 299 300 301 299 298 298 298 298 297 296 296 296 296 296 295 295 296 295 295 297 295 293 292 291 295 296 298 298 300 297 300 299 299 300 302 302 303 305 305 306 307 307 309 309 309 310 311 312 311 309 310 311 311 311 313 316 315 314 313 317 316 310
305 303 302 301 300 299 298 298 297 297 297 298 298 299 300 300 301 301 302 301 300 299 299 299 299 299 298 298 297 298 298 296 296 296 296 296 296 295 294 295 295 295 296 295 294 292 292 293 295 295 296 298 297 298 300 300 301 301 300 301 302 303 305 306 307 309 307 307 306 307 308 309 310 308 307 309 309 309 310 313 312 311 311 313 310
302 302 301 300 299 298 297 296 296 295 296 296 296 297 298 299 299 301 301 300 300 299 299 299 299 298 297 297 297 297 296 295 295 295 295 295 294 294 294 295 295 295 295 295 295 294 293 292 294 295 297 297 298 299 300 301 300 300 300 301 302 302 303 304 305 304 305 306 306 306 308 309 309 308 306 306 308 308 308 309 311 311 310 311 311
302 301 301 299 298 297 296 295 295 295 294 295 295 295 297 298 299 300 300 300 299 299 299 299 302 298 298 296 296 296 296 294 294 294 294 293 294 294 293 294 294 295 295 296 295 295 294 293 294 296 297 297 299 299 300 298 299 299 300 300 300 301 301 302 303 304 306 305 306 307 307 307 307 308 307 306 306 307 307 308 310 311 310 310 310
301 300 299 299 298 296 295 295 294 294 294 294 293 294 295 296 298 299 300 300 299 299 299 299 298 299 297 296 296 296 295 294 293 293 293 292 293 293 293 294 295 295 295 295 296 295 295 294 294 295 296 296 297 297 298 299 298 297 297 299 299 300 299 299 301 303 304 305 305 307 307 307 308 309 309 307 306 305 306 306 308 310 310 310 309
301 300 299 298 298 296 295 294 294 293 293 293 292 293 294 295 296 298 299 298 299 299 299 298 298 298 297 297 297 296 295 294 293 293 292 292 293 292 294 294 295 294 294 295 295 295 295 294 295 295 295 297 297 295 297 298 297 297 295 295 295 297 298 298 298 301 302 303 303 303 304 305 307 309 309 308 305 306 306 306 307 309 310 310 309
301 300 299 298 298 297 295 294 294 294 293 292 292 292 293 294 295 296 298 299 298 297 298 298 298 297 297 297 297 297 296 295 295 294 293 292 293 292 293 294 294 294 294 294 294 294 294 294 294 293 294 294 294 296 296 296 294 294 295 294 292 293 295 297 297 297 299 300 300 301 304 305 306 309 309 310 309 307 307 307 308 308 310 310 309
301 299 299 298 297 296 295 294 293 293 292 293 293 293 292 293 294 295 296 298 298 297 297 297 296 296 296 297 297 298 301 301 300 298 297 296 294 292 293 293 294 293 293 294 294 294 294 293 293 294 293 293 293 293 293 293 292 292 295 295 294 294 295 294 296 298 298 298 299 300 300 303 305 306 306 308 313 313 310 307 309 309 309 309 308
299 299 297 297 295 294 294 293 293 293 292 293 294 294 294 293 293 294 296 298 297 296 297 296 295 296 296 296 300 302 301 300 299 296 295 295 296 295 294 293 293 293 293 293 293 294 293 292 292 292 291 291 292 293 293 294 295 295 294 294 293 294 294 293 294 296 298 298 298 297 300 303 302 302 305 306 309 311 315 313 312 311 309 306 306
299 298 297 295 294 293 292 292 291 292 292 293 293 292 292 294 294 293 295 297 297 296 296 295 294 296 295 295 294 299 300 299 298 296 294 294 293 294 294 296 297 295 293 292 293 294 293 292 292 292 292 291 292 294 294 294 295 295 294 294 293 293 292 290 289 293 298 298 297 297 297 300 302 301 302 304 306 308 311 315 309 307 307 306 305
300 298 296 295 294 293 292 291 291 292 292 294 291 292 292 292 295 295 295 297 298 296 295 295 295 295 294 294 294 296 296 297 296 293 294 294 293 293 293 294 295 295 294 293 293 293 293 292 292 292 292 292 293 294 294 294 294 294 294 294 293 292 291 290 290 290 294 297 295 295 296 299 300 300 299 301 303 305 307 307 306 306 305 306 305
299 299 297 296 294 293 292 291 290 291 290 293 292 292 292 292 293 296 297 297 298 295 295 296 294 294 294 294 293 295 295 299 299 292 291 291 294 294 294 295 296 296 293 292 293 295 294 293 292 292 293 293 293 294 295 295 296 294 294 292 292 292 292 291 291 292 294 297 295 294 293 297 298 298 297 299 301 303 305 304 305 306 306 305 305
298 298 298 296 294 293 292 291 290 290 290 293 292 292 292 292 293 295 297 298 297 295 296 296 295 293 293 292 291 292 291 293 293 292 291 290 290 290 292 293 294 296 295 294 294 294 295 294 293 292 294 295 294 295 297 297 295 293 293 291 292 291 291 291 293 293 294 297 294 293 292 295 298 297 297 299 301 302 303 303 302 303 305 304 304
297 297 297 296 295 294 292 292 291 290 292 292 291 291 291 292 293 295 295 297 296 296 295 295 294 293 293 294 292 291 291 291 294 293 291 290 289 290 291 292 293 293 293 294 294 294 295 295 294 294 295 296 296 296 296 297 296 296 295 293 293 293 293 294 294 294 295 297 296 295 291 295 298 297 297 299 300 301 302 302 302 302 304 304 304
296 296 296 297 295 293 293 292 291 289 290 292 291 292 291 291 294 295 293 294 293 294 294 295 294 293 292 292 291 291 292 291 295 292 292 292 289 289 290 291 292 293 293 296 295 295 295 294 294 295 295 296 295 295 296 296 296 296 296 295 294 293 291 290 289 291 292 296 298 296 294 295 298 297 297 299 300 300 302 304 303 304 304 304 304
295 294 294 294 295 294 293 292 291 289 289 291 291 292 291 291 293 293 292 292 292 292 293 294 294 294 294 293 292 292 292 291 294 291 291 293 289 289 289 290 291 292 292 294 295 294 294 294 293 293 293 293 293 294 294 294 295 295 294 291 289 290 288 287 288 289 290 294 296 297 296 294 297 297 297 299 300 300 301 304 307 306 306 306 304
294 293 293 293 293 293 293 293 292 290 288 292 292 291 291 292 293 291 291 290 290 291 292 293 295 293 295 302 302 294 292 293 293 292 291 292 289 289 288 289 290 290 291 292 293 294 294 294 294 294 293 293 294 294 295 295 294 295 293 288 289 289 287 288 286 288 290 293 295 298 295 295 297 298 297 298 299 301 303 305 308 311 309 307 304
295 294 295 293 293 292 292 295 299 292 290 292 292 291 291 291 292 291 291 289 289 289 290 291 293 293 293 297 299 297 295 294 292 291 291 292 289 289 288 288 289 289 290 291 290 291 292 293 293 294 294 295 296 296 297 295 295 296 295 293 292 289 286 287 287 288 287 290 295 299 295 296 296 297 297 296 296 300 304 305 307 310 313 313 311
Wind_Speed
5 4 3 2 1 2 1 2 2 1 2 3 1 1 2 3 2 1 2 1 2 3 5 6 4 1 4 6 5 5 4 3 2 1 3 3 5 7 10 11 12 10 11 11 12 12 12 12 10 9 12 11 10 8 9 8 8 10 7 6 5 6 5 5 3 4 4 3 4 5 7 5 5 5 4 3 5 5 4 4 5 5 5 6 7
5 3 2 2 2 3 4 4 3 3 5 4 2 1 2 3 3 3 4 3 4 5 4 5 5 4 3 3 3 5 3 1 3 3 3 3 2 3 10 9 8 10 11 12 12 13 13 14 13 12 12 13 12 13 13 11 10 8 8 7 7 6 6 6 6 5 6 5 5 6 6 6 6 5 5 5 4 5 5 5 5 6 5 6 8
3 2 3 3 2 2 3 4 4 4 3 3 2 2 2 1 2 3 3 3 3 3 5 5 5 6 2 3 5 4 4 4 3 3 3 4 3 1 4 10 10 10 10 11 12 13 13 13 14 13 13 13 15 16 14 13 12 10 9 8 8 8 7 7 7 6 7 6 7 6 6 6 7 6 6 7 5 7 7 6 6 6 6 7 7
4 3 2 1 2 3 2 2 4 4 2 2 2 1 2 3 3 3 3 3 4 4 4 4 5 5 1 1 2 4 2 2 2 2 1 2 2 2 0 2 5 7 8 9 9 10 12 12 13 13 14 14 14 11 13 15 13 12 10 10 9 8 8 8 8 8 8 7 7 8 8 7 7 7 8 7 8 7 6 6 6 6 7 7 8
4 3 2 1 1 4 3 3 4 4 3 2 1 2 3 4 4 3 4 4 4 5 4 3 3 4 4 4 3 1 0 0 1 1 2 2 1 0 0 1 2 6 7 9 9 9 10 11 13 14 14 15 14 12 13 15 14 12 12 11 11 10 10 10 10 9 10 9 8 8 8 9 8 8 8 8 9 8 5 7 7 7 8 8 8
4 2 1 2 2 3 3 4 3 3 2 2 1 1 2 3 4 4 4 4 5 5 5 5 5 4 4 3 2 2 1 0 2 3 3 3 2 1 2 2 2 1 4 9 8 8 10 11 12 13 14 15 15 14 14 14 14 13 13 13 11 11 11 11 10 10 10 10 9 10 9 9 9 8 8 9 9 9 7 8 8 8 9 9 8
4 4 4 3 3 4 5 4 3 1 2 2 2 3 3 3 3 3 4 4 4 5 5 5 4 5 5 4 5 3 2 3 3 3 4 5 3 3 4 3 3 5 4 5 5 8 10 10 12 13 14 14 15 14 16 14 13 15 14 13 13 13 13 12 12 11 11 11 11 11 11 10 9 9 9 8 9 9 8 10 10 9 9 9 9
5 5 4 4 4 5 4 5 4 1 1 4 4 5 4 3 3 2 3 4 3 4 4 4 4 4 5 5 5 4 4 4 4 4 5 4 4 3 4 5 5 5 5 5 4 5 9 10 12 14 16 16 15 15 15 17 16 15 14 14 14 15 13 13 13 12 12 12 12 12 12 11 10 11 10 10 9 11 10 10 11 11 10 10 9
4 3 2 5 5 3 4 4 4 3 4 3 4 3 3 4 4 4 3 3 4 4 5 4 4 5 5 5 6 5 5 5 4 5 4 4 4 4 4 4 4 5 4 5 4 5 7 11 12 14 15 16 16 15 16 17 18 17 17 15 16 16 14 15 15 14 13 13 13 14 13 12 11 12 11 10 10 11 11 11 11 11 9 12 11
3 2 3 4 2 2 3 4 3 3 4 4 4 4 5 4 5 4 5 4 4 4 5 5 4 4 4 5 6 5 6 5 5 4 5 5 5 4 6 5 4 5 5 5 5 5 5 7 11 13 15 16 16 15 14 17 20 19 18 16 16 16 16 17 16 15 15 15 15 14 13 12 11 12 12 11 12 12 11 12 12 12 11 12 12
3 3 3 3 2 2 4 6 4 4 4 4 4 4 4 5 4 5 5 4 3 4 4 4 4 4 5 7 6 7 7 6 5 4 4 5 5 5 4 5 4 4 5 5 5 5 5 5 5 5 7 13 15 15 16 20 19 18 19 20 17 16 17 18 17 16 16 16 15 15 13 12 11 13 13 12 12 12 13 13 13 13 13 13 13
4 0 1 3 6 6 4 2 2 3 2 2 2 3 3 4 5 4 5 5 4 4 5 5 4 5 5 6 6 7 7 6 4 3 3 4 5 4 4 4 4 4 4 5 4 5 5 6 5 6 5 6 11 14 16 18 17 16 18 19 18 18 19 19 19 18 17 16 17 16 13 12 13 14 14 14 14 13 13 13 13 14 14 14 14
3 0 4 5 1 5 1 2 3 2 3 3 3 3 3 3 3 3 4 5 4 5 6 5 4 4 4 5 7 6 6 5 2 2 4 6 4 4 4 3 4 4 4 5 4 4 5 6 6 5 6 5 7 10 13 15 16 16 17 19 20 19 21 21 20 19 18 19 18 17 16 15 15 13 15 15 14 14 14 14 14 14 14 13 14
2 3 5 2 3 4 4 4 5 6 4 5 5 4 4 5 4 4 4 4 4 5 8 8 3 5 6 6 5 6 5 2 2 2 5 5 4 4 4 4 5 5 4 4 5 5 5 5 6 6 6 6 6 5 5 9 12 17 17 17 19 22 22 21 21 21 19 19 20 19 16 16 17 16 16 16 16 15 14 15 15 15 15 14 13
3 6 6 5 4 4 5 5 6 6 7 7 7 7 6 7 6 5 5 3 3 4 7 7 5 7 5 1 4 6 6 4 5 8 6 5 5 4 4 4 5 5 4 4 5 5 6 5 6 6 6 6 6 5 5 6 9 13 17 18 18 21 23 21 21 21 18 20 20 21 18 16 17 18 18 17 17 17 15 15 16 15 15 14 14
8 6 5 5 6 6 6 7 7 7 6 6 6 7 7 7 6 6 4 6 6 5 6 7 6 8 5 2 3 2 5 4 8 8 2 6 5 4 4 3 6 4 3 4 5 5 5 6 7 6 7 7 6 6 7 6 9 12 14 17 18 20 22 23 22 20 23 22 21 23 16 15 16 18 19 17 16 16 15 14 16 15 15 16 15
6 6 5 6 6 7 7 6 6 6 6 6 6 6 5 5 6 6 7 4 4 3 5 6 7 7 4 4 3 2 2 6 10 4 5 6 5 7 5 4 6 5 3 7 5 5 5 5 7 6 7 7 7 7 7 7 7 8 10 14 18 19 20 21 21 22 24 24 22 21 18 19 17 18 18 17 16 16 16 16 17 16 17 17 16
7 7 8 6 6 6 6 5 5 5 6 5 5 5 6 6 6 4 5 5 2 4 4 4 3 7 6 5 2 4 6 6 5 7 6 1 3 4 6 8 8 9 6 5 6 6 5 6 5 7 7 7 7 7 7 7 7 6 7 9 16 18 19 19 22 23 24 25 24 23 22 19 17 17 18 18 19 18 19 20 19 18 19 18 17
6 7 8 8 7 7 7 6 6 5 4 5 6 5 5 4 4 5 5 5 5 5 5 5 2 6 6 7 6 5 4 5 5 6 9 3 3 6 6 6 9 9 7 9 8 7 8 7 7 8 8 7 7 7 7 8 9 10 14 14 15 17 18 19 20 24 24 25 24 23 23 23 20 19 20 20 20 20 21 20 20 20 19 19 18
7 7 8 7 7 7 6 6 6 6 5 5 5 5 5 4 4 4 5 5 5 5 5 6 6 6 6 7 5 4 5 3 3 4 4 7 11 4 2 7 9 5 9 10 10 11 11 9 8 8 8 9 8 7 7 8 7 8 9 15 16 17 18 19 19 19 21 25 26 24 24 24 24 23 22 20 19 18 20 22 21 20 20 21 20
7 7 6 6 5 5 5 6 6 5 5 6 5 5 5 4 7 7 6 6 5 4 5 6 6 6 6 5 4 6 4 3 3 4 4 5 5 9 12 8 2 3 8 7 10 11 11 10 10 9 8 9 5 5 7 6 6 7 8 11 14 16 17 18 19 20 20 22 26 26 25 26 26 25 23 22 20 21 20 21 21 21 21 21 20
6 6 5 4 4 4 5 5 5 5 6 6 6 7 6 5 6 6 6 5 5 5 6 6 6 5 6 5 6 6 4 4 5 7 4 3 6 8 8 11 14 9 5 8 10 11 10 10 9 10 12 8 7 3 4 5 6 7 9 15 14 14 16 15 16 19 21 21 21 22 24 26 25 24 24 25 26 22 19 20 21 23 23 23 21
5 5 4 4 5 6 6 6 6 6 6 5 6 5 5 5 6 6 6 6 6 5 6 5 5 6 7 6 7 7 7 8 8 9 8 7 8 6 6 7 7 11 9 9 9 9 10 10 8 11 11 11 10 10 10 9 8 8 12 12 13 14 13 12 15 17 19 20 19 21 26 24 23 23 25 27 27 25 23 24 25 25 25 24 25
5 3 3 5 5 6 6 6 6 6 6 5 5 6 5 5 5 5 5 6 5 5 6 6 7 6 6 6 7 6 7 7 7 8 8 7 7 8 8 9 7 5 7 8 7 8 10 8 10 10 8 11 11 11 12 11 13 17 11 11 12 12 13 14 16 20 19 19 19 20 22 26 24 20 25 25 25 24 26 27 26 25 26 25 25
3 3 4 5 7 7 6 6 6 5 5 5 5 5 5 5 5 4 5 6 5 6 6 7 6 6 6 5 5 6 7 6 7 7 7 6 7 7 7 7 8 9 7 8 7 8 7 9 10 10 9 11 11 12 11 10 11 19 25 15 18 14 11 12 16 17 16 19 19 18 18 21 25 22 23 24 23 24 25 26 25 22 22 21 22
2 4 4 5 6 5 5 5 5 5 4 5 5 4 5 5 5 5 5 6 6 7 6 6 6 5 4 5 6 7 6 6 6 7 7 7 7 9 10 8 7 8 7 7 8 10 6 8 9 10 10 12 12 11 12 12 12 19 26 19 16 17 16 16 16 17 18 18 19 19 17 18 22 22 22 23 23 22 23 21 20 22 21 22 21
2 4 6 6 5 5 5 5 5 6 6 6 6 6 6 5 5 6 6 6 7 6 5 6 6 6 6 6 7 7 7 7 7 8 9 9 9 10 11 12 11 7 8 7 7 7 10 9 9 11 11 12 12 12 13 13 15 22 24 16 12 18 19 18 17 17 18 19 19 19 19 19 21 21 21 18 20 19 19 19 21 22 22 21 20
3 5 5 5 4 5 5 6 6 6 6 6 6 6 6 6 6 6 6 4 5 6 5 6 7 7 7 7 8 9 9 9 9 9 9 9 9 9 9 9 11 12 10 9 8 8 10 11 9 8 12 12 12 11 16 17 14 22 19 13 13 14 19 21 19 18 18 19 19 19 19 22 21 22 21 21 19 20 20 21 22 23 23 22 21
5 4 4 4 4 5 6 6 7 6 6 5 6 5 5 5 6 6 5 4 5 5 6 7 7 8 9 11 10 9 9 9 9 9 9 9 8 8 8 8 9 8 10 12 11 11 10 10 12 9 9 12 12 12 13 13 15 18 14 14 14 14 18 22 23 21 20 18 18 18 18 21 22 22 23 22 22 19 20 21 22 20 18 21 23
4 4 4 5 6 6 6 6 6 6 6 5 5 5 5 6 5 5 4 5 6 6 6 7 8 9 10 10 9 9 9 9 8 9 9 8 8 7 7 7 7 7 8 10 12 9 10 9 7 11 10 11 11 11 11 12 17 19 15 15 14 14 21 25 25 22 20 18 17 16 16 20 23 23 23 23 23 22 21 22 22 22 24 27 26
6 5 6 6 7 7 6 6 6 7 6 6 5 5 4 6 5 6 6 6 6 7 7 8 8 9 9 11 9 9 8 9 8 8 9 8 8 8 8 8 8 8 8 8 11 9 7 12 10 7 12 12 11 12 10 10 14 18 15 14 14 19 24 18 22 22 20 19 18 16 16 18 20 21 24 25 25 24 23 21 22 24 25 22 22
6 7 7 7 7 7 7 7 7 7 7 6 6 5 4 5 5 6 6 6 7 7 8 7 6 8 9 10 10 8 8 7 8 8 8 8 8 7 8 7 7 7 8 9 9 13 9 9 12 13 12 12 12 12 13 11 12 17 13 14 16 20 14 12 16 20 21 20 20 19 17 18 18 20 25 25 23 25 24 23 22 24 25 24 27
6 6 7 7 7 7 8 7 7 6 7 7 6 6 5 5 5 5 6 6 8 7 7 7 7 8 9 9 9 9 8 9 8 8 8 9 8 7 7 7 7 6 7 9 10 12 11 8 9 11 13 11 11 11 14 13 13 13 14 14 15 13 13 11 12 17 20 21 21 21 20 19 18 20 23 24 25 25 26 24 24 25 25 25 25
7 7 7 6 7 8 8 8 7 7 7 7 7 7 8 6 5 4 5 7 7 6 5 6 7 7 8 10 9 9 9 9 9 8 8 9 9 9 9 8 8 8 8 9 10 10 14 12 10 10 11 11 12 10 11 14 14 14 15 14 13 14 14 13 12 12 19 19 19 20 21 21 19 19 21 22 23 25 25 24 23 24 25 26 23
7 8 8 8 7 7 8 8 7 7 7 7 7 8 8 8 6 5 5 6 6 5 6 6 7 8 9 9 9 8 7 8 8 7 8 9 8 9 10 8 8 9 9 10 10 11 13 13 13 14 14 13 12 13 13 10 11 13 15 14 14 13 13 15 13 10 17 20 23 23 23 21 19 18 19 22 23 24 24 25 24 23 24 25 25
8 8 8 8 8 8 8 8 8 8 8 8 8 7 8 7 8 5 6 6 5 6 6 7 8 9 8 8 7 7 7 7 8 8 9 9 9 9 9 8 9 10 10 10 10 9 11 13 12 13 13 14 12 12 12 11 11 12 12 13 13 13 14 13 14 14 15 20 21 20 21 21 20 17 17 20 22 23 24 24 24 24 24 25 25
6 8 8 7 8 8 9 8 8 8 8 8 8 8 7 7 6 6 4 5 5 5 7 8 8 8 8 7 6 5 6 8 8 9 10 11 9 8 8 9 10 9 7 7 8 8 10 11 10 9 9 9 10 11 12 13 13 12 11 12 13 13 14 13 12 13 18 20 17 18 19 21 22 20 17 18 21 23 23 24 26 25 25 25 25
9 8 8 7 8 8 8 8 7 7 7 6 7 6 7 7 7 7 5 4 4 5 6 8 8 7 6 6 5 6 7 8 8 8 9 10 9 9 9 9 8 7 8 8 9 9 10 10 11 11 9 11 11 10 11 13 15 15 14 13 12 12 14 15 13 12 11 11 10 12 15 16 19 21 20 17 19 22 23 23 24 24 25 25 26
9 8 7 8 7 8 8 7 7 6 6 6 6 6 6 7 6 6 6 4 4 4 6 7 7 6 5 5 5 6 7 7 8 8 9 9 8 7 7 7 8 8 8 8 8 8 10 12 11 10 11 10 11 13 13 15 14 13 15 16 16 13 13 14 16 14 13 14 16 17 15 16 18 17 19 19 16 20 22 23 23 26 26 26 26
8 8 8 8 7 7 7 7 6 5 6 7 7 6 6 5 5 5 4 2 4 4 6 6 5 5 4 4 5 6 5 6 7 7 6 7 7 7 6 6 7 8 8 9 9 8 9 11 11 13 11 12 11 12 12 14 14 13 12 14 17 18 17 14 14 16 16 15 15 15 14 14 14 15 16 15 15 17 20 22 23 25 27 26 26
8 9 8 8 7 7 6 6 6 6 7 7 5 5 6 6 4 4 4 3 4 4 5 6 5 5 4 4 5 5 8 10 11 9 8 7 5 6 7 7 7 8 8 8 9 8 9 10 11 11 12 13 12 11 12 12 13 13 14 14 16 16 17 17 16 13 13 15 15 14 13 10 11 11 11 12 11 11 14 20 19 23 22 24 25
9 9 9 8 7 7 7 7 7 7 7 5 6 6 4 2 3 3 3 3 3 3 5 5 4 4 6 6 6 12 8 7 9 12 13 12 10 7 6 6 6 6 7 8 9 8 8 10 11 12 12 11 12 14 16 15 13 14 13 13 16 17 15 17 16 11 11 13 14 15 13 9 10 13 11 11 11 11 9 8 10 13 18 23 18
9 9 9 9 7 7 7 6 6 6 5 4 7 7 8 8 4 3 3 2 3 4 4 5 4 6 6 5 4 6 5 5 5 11 13 14 13 14 14 12 9 6 6 7 8 7 8 9 9 10 11 13 15 16 14 13 11 12 12 13 13 14 15 15 17 14 7 10 13 14 16 11 7 10 12 12 11 11 10 9 11 17 19 21 24
7 8 9 8 7 6 6 6 5 4 4 7 10 11 11 10 7 3 3 3 3 5 4 5 5 6 5 4 4 2 3 4 4 5 9 13 14 14 15 14 12 11 7 4 6 8 8 8 8 9 10 9 11 10 12 13 14 14 13 13 12 13 15 15 15 16 12 10 14 14 15 13 9 10 13 13 12 11 12 15 18 15 19 21 23
6 8 8 9 8 6 6 5 4 4 4 8 10 11 11 12 12 7 4 3 3 4 6 5 5 5 4 5 3 3 3 7 4 4 5 7 11 13 13 14 12 12 11 11 8 6 6 8 10 10 9 11 10 9 11 16 14 15 14 13 13 14 13 15 16 16 16 10 12 15 15 14 7 10 12 14 12 11 12 15 19 20 19 21 21
6 6 8 8 7 7 5 5 4 4 4 8 12 13 14 14 14 9 6 5 5 5 5 5 5 5 4 4 4 4 4 4 3 4 5 6 7 7 8 8 7 9 11 11 12 12 9 6 8 10 13 12 13 15 15 15 15 16 15 15 15 14 13 15 17 18 16 12 14 13 16 15 10 11 13 13 11 12 11 15 20 21 20 19 20
6 6 8 7 6 6 5 4 4 4 5 10 13 14 15 15 14 10 7 7 7 8 6 3 4 4 3 3 2 3 6 6 4 5 5 6 6 7 7 8 8 8 8 8 7 7 7 7 7 9 11 12 13 15 15 14 15 15 14 15 17 16 15 15 15 13 14 13 15 12 15 13 12 12 12 12 13 13 11 14 19 20 20 19 21
4 5 6 6 5 5 4 4 4 5 5 11 12 14 15 14 12 7 7 7 7 6 7 4 2 1 2 2 2 5 7 6 8 11 8 6 5 6 8 8 8 8 8 9 11 10 9 9 8 9 10 13 15 15 15 15 13 12 12 12 12 12 12 13 13 12 13 10 9 10 12 14 12 11 12 10 11 13 13 12 16 19 21 20 21
6 5 5 5 5 5 4 5 5 4 4 8 12 13 13 12 8 6 6 6 6 7 5 5 3 1 1 1 1 7 6 6 12 14 12 9 6 7 7 8 8 8 9 8 10 14 15 15 15 14 16 17 17 17 18 19 15 14 12 12 12 11 14 14 15 13 13 10 8 9 11 15 12 11 11 10 10 11 12 12 11 15 19 20 22
6 6 5 5 4 4 5 5 5 5 4 6 9 10 11 12 8 5 5 6 6 6 7 6 5 2 2 6 9 6 6 7 14 17 15 8 7 7 7 8 9 9 10 8 7 10 15 15 14 15 16 16 17 16 17 18 18 15 12 13 13 11 11 10 15 14 14 11 11 10 11 13 14 12 10 12 12 10 11 12 12 13 17 17 20
7 7 6 6 4 4 4 6 8 6 4 4 6 8 8 8 7 4 6 6 7 7 7 7 6 3 4 6 12 11 7 11 17 17 18 11 7 8 7 7 8 10 10 9 10 11 10 9 9 11 12 14 12 11 12 17 16 15 11 12 11 10 11 12 13 14 14 8 7 9 10 11 12 12 8 8 10 9 8 11 11 11 9 7 9
Wind_Direction
80 74 79 67 15 319 296 236 234 209 179 213 200 72 161 184 196 181 195 242 269 310 349 333 330 305 262 261 241 218 182 182 197 10 119 173 192 200 198 197 190 188 185 194 200 202 204 204 204 201 186 186 191 195 199 200 230 167 182 214 227 234 224 232 209 232 233 210 212 217 197 200 202 179 184 180 162 143 139 136 139 137 137 141 127
80 66 62 25 17 346 351 346 340 340 4 10 5 92 45 5 349 338 345 333 334 323 329 328 322 335 338 315 324 306 309 65 50 71 19 88 197 227 208 200 196 193 197 200 204 209 210 206 206 206 201 195 196 191 192 201 208 197 192 201 227 224 223 228 224 221 230 230 217 212 212 210 211 202 195 195 218 175 155 148 150 146 144 135 120
66 67 49 42 3 344 333 330 324 325 352 330 329 3 350 336 291 309 313 312 301 303 324 325 324 313 320 20 347 354 354 28 36 16 31 28 29 305 234 205 202 201 204 207 211 214 216 212 211 211 214 212 207 194 193 197 204 200 196 206 211 222 219 221 227 224 227 231 230 214 212 216 216 211 210 207 208 194 159 158 154 156 156 147 146
52 48 59 43 355 336 313 315 300 308 315 276 304 321 326 322 327 312 321 331 321 322 313 318 317 313 341 56 11 3 360 53 48 14 356 301 69 51 264 246 244 228 221 223 228 228 228 226 222 221 220 221 230 242 204 200 205 199 198 198 218 211 214 221 226 227 228 224 230 224 216 211 213 214 217 207 208 195 179 164 157 161 163 159 151
49 38 25 43 343 301 318 316 305 304 307 327 30 5 356 346 332 344 331 331 335 328 320 307 302 308 329 342 0 342 267 94 222 214 255 270 216 132 358 236 212 237 238 236 236 240 243 243 240 233 227 226 236 235 202 204 201 200 198 203 218 220 209 216 224 226 229 223 224 228 226 219 210 216 213 213 199 192 180 156 165 165 170 169 158
28 9 58 20 350 315 295 285 289 324 4 32 21 343 332 335 316 342 325 328 318 306 310 314 307 314 328 309 326 276 237 232 222 251 263 263 248 185 175 191 178 183 222 236 243 246 244 248 252 250 241 239 239 234 223 216 205 201 198 198 214 218 215 220 223 224 229 228 222 225 231 228 216 214 214 209 197 193 181 161 164 173 169 172 170
15 10 10 358 344 330 314 296 302 327 23 346 4 328 317 300 303 316 314 316 300 296 298 293 296 301 292 294 292 270 219 240 247 224 238 248 251 228 220 208 179 201 214 216 229 239 242 239 249 258 258 251 251 249 235 235 215 213 209 203 207 212 218 211 215 222 225 228 223 224 230 230 222 212 208 208 205 202 193 171 172 173 175 175 176
22 10 347 341 351 337 321 331 290 35 17 6 11 350 315 307 295 281 313 308 310 303 302 290 290 285 286 288 276 269 259 252 235 225 229 232 236 227 227 233 206 188 211 232 227 240 237 234 240 243 247 250 250 252 246 239 234 223 223 208 212 207 214 213 218 218 221 224 225 223 226 230 224 215 205 203 208 201 198 185 185 184 179 181 178
27 359 332 352 5 338 317 336 355 9 42 23 24 7 18 5 352 342 328 305 311 306 312 304 288 282 283 288 286 283 269 245 230 229 235 231 223 225 225 227 235 230 226 227 221 233 252 242 243 247 246 244 244 244 248 244 239 234 235 214 210 209 213 218 216 219 219 218 224 224 223 228 220 218 208 201 204 206 200 195 191 190 185 177 188
13 351 354 354 330 269 310 336 332 5 40 26 358 10 8 13 348 332 328 322 317 319 308 308 301 302 299 291 285 276 267 252 226 226 225 247 243 213 218 224 219 219 215 229 238 241 238 248 252 256 250 243 240 238 239 247 246 241 237 233 210 210 211 219 221 216 219 220 219 222 221 220 219 219 215 203 203 210 204 201 199 194 191 187 186
27 13 344 263 255 343 16 356 1 23 36 24 12 5 2 356 353 329 328 318 321 314 304 304 311 308 300 291 289 281 273 261 246 239 234 239 249 237 192 219 221 229 224 215 215 229 232 231 243 247 251 247 243 236 231 239 243 243 241 239 219 216 213 218 223 215 217 222 218 219 220 209 209 219 218 208 202 208 210 207 202 200 193 191 189
24 299 248 314 14 0 6 313 306 47 40 38 358 17 357 349 346 342 337 332 335 318 319 318 313 313 300 299 287 282 278 264 244 234 241 253 253 258 244 226 214 223 226 224 211 224 241 246 238 237 245 249 243 236 237 240 241 239 245 245 228 221 220 217 221 219 212 219 222 218 217 205 200 215 217 212 204 205 212 208 203 200 192 189 190
293 308 25 28 350 239 277 355 3 13 39 21 10 3 358 351 334 335 347 346 334 342 324 306 321 315 307 300 301 290 278 277 276 262 260 261 263 261 263 260 242 226 225 238 243 220 220 239 242 245 242 245 248 241 237 241 245 241 240 242 238 231 224 221 222 218 212 210 219 220 212 204 195 205 213 215 207 206 212 207 203 198 191 188 188
264 10 54 99 42 14 22 23 24 19 30 27 29 14 18 16 8 10 355 359 351 350 353 350 6 336 320 321 316 311 314 43 91 331 293 281 270 259 250 247 257 249 226 210 236 247 238 216 232 241 246 242 241 250 253 244 241 239 236 236 236 238 234 227 226 226 214 213 212 219 214 201 192 196 206 213 211 208 210 210 201 201 195 192 192
52 49 46 35 30 30 34 31 29 31 39 32 22 20 15 18 14 23 0 358 360 11 13 21 355 321 288 323 323 357 330 357 356 332 324 304 287 267 259 250 261 249 234 208 211 234 253 242 232 232 236 236 237 241 245 243 245 239 233 233 233 235 238 232 231 228 226 224 216 218 215 206 191 192 200 209 212 209 208 211 205 200 203 197 197
48 49 46 39 32 29 25 33 35 41 46 40 28 26 19 17 16 19 15 17 9 3 10 7 15 6 13 330 271 352 336 347 333 309 320 341 342 311 310 327 297 293 264 243 238 225 234 242 243 235 235 237 226 227 232 238 245 246 240 234 232 232 235 236 234 235 233 226 225 219 216 215 199 195 199 203 210 209 209 208 208 203 201 202 199
43 41 36 36 37 40 42 38 40 40 41 42 34 24 19 11 16 25 26 18 12 354 355 10 14 32 9 352 351 25 22 330 324 268 5 329 357 6 350 350 329 321 296 268 281 267 237 236 245 251 244 235 242 237 232 232 237 240 241 235 234 233 231 233 232 235 233 233 229 226 215 213 201 199 200 200 203 203 207 205 206 205 205 205 202
46 41 36 31 37 43 42 39 40 38 41 41 32 22 14 13 10 25 20 10 2 17 2 358 14 35 27 46 324 336 340 325 350 321 340 263 10 10 355 7 7 345 317 302 301 293 288 270 269 260 252 240 231 236 237 238 237 231 228 235 230 231 230 230 230 232 236 236 231 226 222 211 208 200 205 201 201 200 204 205 204 204 204 205 205
47 45 40 36 34 32 32 27 24 28 34 41 36 23 6 8 10 23 18 8 19 33 14 349 357 37 22 22 21 13 354 351 357 321 331 325 70 3 357 8 356 339 351 352 333 321 309 292 270 256 260 252 235 229 229 234 235 234 234 230 228 228 229 230 230 233 236 241 239 232 228 217 205 206 203 203 203 203 202 205 205 204 203 201 203
54 49 45 42 38 36 33 31 29 24 31 36 34 14 11 8 23 26 27 28 25 30 19 17 31 17 11 15 9 2 1 5 18 351 290 317 323 359 43 5 347 336 9 345 345 339 328 314 293 276 261 258 243 231 228 230 235 240 240 232 227 224 225 228 230 233 235 236 242 235 231 226 212 207 204 206 206 205 205 205 206 204 203 201 200
55 54 50 44 40 41 38 37 33 25 32 32 23 13 14 16 27 30 31 24 23 27 43 30 31 22 11 11 0 7 348 351 4 355 0 319 316 344 337 341 352 41 351 349 338 328 321 318 318 304 284 271 307 342 338 330 303 291 280 259 239 235 229 226 226 229 228 231 236 237 235 230 224 214 202 205 205 206 205 207 207 207 204 202 201
53 50 47 42 40 38 41 41 33 27 34 31 21 15 17 33 38 36 25 16 10 33 48 41 35 17 23 9 15 354 360 5 13 1 349 16 346 338 350 344 338 341 360 346 337 322 321 326 332 350 346 344 34 20 323 332 327 314 297 294 277 255 245 238 235 230 228 226 227 231 236 234 226 219 208 207 206 202 201 208 210 209 208 205 203
59 47 42 36 23 32 38 34 33 31 31 26 23 18 20 38 39 31 22 16 6 31 43 42 33 25 22 21 14 8 10 12 7 10 8 359 348 348 341 345 324 320 338 339 329 328 335 327 352 3 16 26 20 1 348 333 308 281 290 303 297 283 270 261 251 244 236 231 224 219 225 239 238 219 219 213 210 200 195 204 212 211 209 207 204
56 34 15 9 31 42 38 35 30 29 28 20 20 24 34 39 35 29 15 12 22 42 51 43 37 35 27 18 16 14 28 23 15 12 10 357 355 345 342 335 322 321 317 327 325 343 327 339 359 358 9 23 12 3 357 349 340 340 340 306 292 291 277 260 251 249 245 241 232 224 218 227 239 232 225 220 216 210 201 205 212 212 211 207 206
23 10 355 34 53 42 35 32 29 25 29 26 16 29 42 45 33 19 18 29 34 45 49 43 43 41 29 16 24 31 32 23 19 17 9 359 357 342 341 339 327 326 333 340 336 338 338 353 351 349 3 16 5 358 350 348 347 339 333 324 308 286 275 259 257 260 248 244 245 235 229 219 226 231 228 228 223 220 216 208 209 212 210 211 209
10 350 359 55 56 48 41 35 32 26 25 21 24 25 38 46 29 20 22 31 37 38 43 43 36 33 26 26 28 34 32 23 22 16 7 1 357 357 345 343 340 328 325 337 337 334 344 353 350 348 358 3 356 352 347 342 343 332 326 324 317 302 283 271 262 251 244 238 241 245 234 223 224 228 232 224 222 215 216 216 211 210 208 207 205
14 34 52 56 55 45 45 42 30 27 25 28 25 25 30 38 27 22 25 38 40 39 42 42 30 19 17 26 42 38 31 23 25 17 18 19 12 6 1 349 342 341 333 332 333 338 333 334 354 346 357 352 349 344 341 340 330 325 324 325 325 322 315 299 278 263 255 245 236 230 233 228 224 218 228 226 222 220 216 208 217 212 209 206 207
29 62 47 63 59 53 50 45 35 29 29 33 33 33 30 35 26 25 35 33 38 39 42 34 28 23 29 42 44 34 31 25 27 24 28 23 18 12 7 3 352 337 339 330 336 327 343 335 341 356 348 345 342 340 335 332 327 323 325 329 327 323 320 313 302 283 269 260 250 236 225 229 225 222 219 224 224 220 216 211 214 214 208 203 204
81 69 62 51 63 63 55 47 38 30 28 30 34 33 34 33 29 28 33 18 30 34 41 39 32 31 38 45 45 37 32 29 27 27 23 23 16 10 10 6 357 346 341 332 329 330 337 356 332 338 350 340 334 333 330 323 321 326 327 324 320 318 313 314 314 304 285 272 259 250 233 231 228 225 223 220 224 222 218 214 210 212 208 212 207
86 78 67 56 45 51 54 48 39 32 29 27 31 33 38 34 30 30 28 32 36 36 38 41 34 44 50 51 45 40 34 29 30 25 23 17 11 9 13 6 359 352 343 329 316 323 323 330 329 321 335 334 329 322 319 315 319 323 321 317 315 313 315 314 311 305 295 280 269 257 239 233 235 231 226 223 218 218 217 215 209 209 210 210 208
66 62 63 59 57 48 49 47 40 34 26 24 23 29 36 42 31 29 22 33 41 42 36 40 46 52 53 50 43 41 33 31 28 29 22 18 10 6 9 4 360 354 344 328 317 315 338 322 322 330 325 328 325 315 315 318 316 318 316 312 310 311 311 308 304 302 297 286 275 263 250 238 234 233 236 227 220 217 216 214 209 209 214 209 208
74 73 64 61 57 55 48 45 39 33 27 18 17 23 31 45 38 34 27 36 40 46 48 46 53 56 57 53 44 38 34 30 30 24 21 13 9 6 3 2 354 351 344 335 319 310 330 324 321 320 327 323 318 321 324 317 317 315 314 313 311 309 307 308 310 309 306 297 285 273 261 250 234 229 233 235 228 222 220 215 210 213 211 207 207
73 72 73 67 61 57 52 46 41 34 26 18 12 17 22 36 38 37 35 40 47 48 52 50 53 59 59 55 48 40 34 32 20 18 16 9 6 5 358 354 348 346 347 339 327 318 316 325 317 320 321 321 322 327 320 320 320 320 317 312 310 310 311 312 311 308 305 302 292 281 270 256 244 234 233 234 230 226 222 217 209 209 208 207 208
72 69 70 68 65 59 55 46 39 32 24 20 15 14 19 10 28 30 41 45 52 52 47 48 52 59 60 58 48 42 35 29 18 15 9 5 1 358 357 352 347 348 350 344 337 327 322 327 325 320 318 327 316 321 321 323 320 319 318 319 318 319 317 313 309 306 302 304 309 305 288 273 256 239 235 232 228 227 225 218 212 206 205 208 205
71 74 71 68 63 62 61 52 42 33 22 19 15 18 15 14 4 27 36 52 54 49 44 48 58 60 57 54 51 44 28 24 18 10 6 2 356 355 352 350 350 350 351 352 340 333 328 325 326 327 328 325 320 320 320 314 313 318 321 322 320 316 313 311 309 313 319 325 324 318 313 299 276 256 241 235 231 226 226 222 213 210 206 205 204
87 77 75 69 65 61 57 52 45 36 26 19 18 16 15 8 6 0 48 51 49 46 47 55 61 62 60 55 48 42 28 26 17 11 5 1 0 358 353 351 356 357 353 346 339 328 329 326 331 327 326 324 321 316 313 311 315 319 318 312 310 311 312 313 318 316 313 314 312 310 310 308 300 276 251 242 238 229 224 223 219 212 208 205 203
84 86 78 71 68 61 55 50 45 39 31 23 20 14 10 5 6 358 38 58 48 49 58 63 66 69 61 56 48 43 32 31 19 17 4 5 4 360 357 359 359 354 337 319 322 322 327 326 311 304 311 308 308 309 314 319 319 317 315 313 314 313 313 312 309 307 308 308 308 310 312 314 311 298 269 242 239 238 228 223 221 214 209 207 202
91 87 85 78 73 68 60 54 49 44 36 30 25 14 6 3 2 5 6 55 46 56 65 68 67 64 63 51 48 53 44 36 23 15 7 4 3 2 360 358 344 322 321 321 320 316 316 312 305 310 314 316 316 314 318 325 326 323 322 320 318 318 316 313 310 309 308 308 313 314 314 312 307 305 295 258 241 238 236 227 222 219 213 208 204
100 97 91 87 77 72 64 55 50 43 36 32 25 12 7 5 2 1 357 33 51 55 69 75 71 64 60 52 53 61 53 37 25 17 7 2 1 356 346 333 326 324 320 318 308 308 321 326 326 323 324 327 325 326 333 332 325 324 324 324 320 319 313 315 314 314 311 308 304 300 295 296 305 307 299 287 252 240 236 233 223 222 218 209 206
102 99 93 85 80 74 65 60 50 46 40 33 22 11 3 360 356 349 356 354 65 62 77 81 77 69 54 52 60 62 61 33 23 12 17 1 354 344 332 329 327 329 328 325 325 308 324 334 338 337 336 330 331 329 327 327 324 323 324 320 315 316 314 309 308 309 309 307 305 307 306 309 303 301 310 305 282 254 242 237 231 223 221 215 208
99 95 88 81 78 73 66 58 50 42 41 29 20 1 348 353 353 340 342 336 73 69 82 85 78 69 51 48 65 62 41 28 12 4 6 8 359 339 330 332 337 339 336 334 333 325 334 339 334 331 326 328 327 324 326 329 325 319 317 312 306 306 306 304 299 296 296 300 300 299 298 302 308 313 310 304 304 283 250 242 239 233 224 226 213
100 97 92 87 79 72 62 48 43 40 33 24 6 355 356 333 327 330 342 341 70 71 92 91 72 61 52 53 41 49 50 21 4 358 354 355 352 344 325 320 321 330 336 337 335 333 333 334 332 325 323 319 321 324 321 315 310 309 307 308 306 309 304 299 294 286 294 293 294 293 292 297 304 298 295 298 300 298 295 252 236 233 222 221 219
106 106 101 95 87 77 69 57 46 42 31 9 358 17 20 13 4 350 351 330 54 46 87 103 86 63 62 59 48 31 30 357 350 356 348 348 345 342 336 324 314 321 334 334 331 323 324 322 314 317 315 313 314 316 312 310 305 310 310 307 303 305 305 305 302 301 277 296 295 297 290 288 282 289 294 289 292 296 298 278 245 233 230 220 207
108 110 106 103 95 84 75 65 54 37 27 6 16 18 17 15 11 353 341 350 44 34 60 93 80 75 72 57 36 23 351 356 348 358 345 340 338 335 333 328 322 323 332 318 316 321 324 321 310 305 303 298 299 304 310 310 315 311 310 308 305 300 299 295 291 290 298 303 291 286 284 286 284 281 285 284 284 283 281 284 284 252 233 229 217
96 109 118 105 98 92 81 73 60 37 34 12 23 24 20 17 12 10 348 331 42 48 61 83 92 88 83 62 33 353 330 342 347 353 345 334 331 328 324 325 321 320 325 317 292 279 298 309 314 306 307 310 306 297 298 310 309 307 312 311 309 301 294 288 286 290 292 292 287 284 282 283 285 279 276 278 279 277 278 275 272 272 248 231 223
87 94 109 111 108 102 98 87 67 48 35 15 28 26 24 20 15 19 7 5 21 24 63 108 108 103 95 84 44 359 346 350 337 357 338 332 325 322 320 316 312 309 310 303 301 302 303 299 302 307 311 316 315 315 313 314 313 314 315 311 310 300 293 287 289 287 284 280 272 279 278 278 278 275 275 279 278 275 273 272 273 272 260 235 221
100 95 107 119 117 115 110 93 69 47 27 25 32 29 26 22 16 23 21 28 31 33 23 62 104 119 119 113 84 12 7 351 337 4 345 328 321 314 312 310 306 304 297 295 299 306 309 302 295 291 300 310 311 311 313 312 309 308 307 306 304 297 287 281 274 267 264 256 257 256 266 278 276 274 270 276 278 277 272 271 265 262 259 240 224
95 82 83 108 124 125 120 102 80 50 26 26 34 33 30 24 22 26 25 28 28 28 27 14 12 110 135 101 49 18 5 342 339 351 352 330 318 313 310 304 305 302 298 288 288 297 300 296 291 290 297 303 304 306 309 310 308 308 306 303 296 294 296 296 290 292 284 280 260 255 267 272 270 268 272 263 264 272 276 271 268 259 253 242 229
104 97 103 106 126 134 130 113 94 67 42 26 34 32 30 29 30 26 27 25 22 20 19 12 350 312 175 163 8 20 353 337 335 340 346 344 322 316 307 304 302 306 303 304 311 313 309 304 295 293 301 306 307 307 310 310 310 313 315 312 316 315 307 302 297 294 289 292 275 259 264 274 271 266 268 265 262 269 274 273 269 262 253 241 228
124 130 122 112 112 127 139 135 117 93 59 34 42 32 28 25 31 36 29 33 21 18 6 8 3 316 316 347 357 6 349 331 332 336 339 345 325 315 312 309 312 313 307 312 324 316 309 299 300 310 312 311 314 316 319 322 318 317 320 317 310 307 300 294 299 298 296 292 279 263 260 260 269 261 266 272 276 260 265 268 263 257 250 239 226
145 145 138 131 136 130 123 125 126 105 83 51 47 43 32 26 28 23 32 30 29 11 3 355 355 349 315 329 345 340 343 328 332 333 333 338 326 318 311 310 310 312 307 324 321 315 311 312 312 318 322 324 324 322 324 323 319 321 322 313 313 311 305 301 299 303 301 289 296 298 278 271 263 260 247 275 276 275 244 256 259 257 252 230 221